KC0MWM-2 Weather Reports


Display with metric or nautical units.
time (UTC)temp
F
wind
direction
speed
MPH
gust
MPH
rain 1hr
in
rain 24hr
in
rain mn
in
humidity
%
barometer
mb
20260504130615 55 315 4.0 6.0 0.00 0.00 0.00 63 1005.6
20260504110615 51 0.0 1.0 0.00 0.00 0.00 67 1005.0
20260504081617 60 180 2.0 4.0 0.00 0.00 0.00 51 1006.2
20260504080617 60 180 1.0 2.0 0.00 0.00 0.00 51 1006.3
20260504050616 59 0.0 1.0 0.00 0.00 0.00 52 1008.6
20260504045615 59 0.0 0.0 0.00 0.00 0.00 52 1008.7
20260504044616 60 0.0 0.0 0.00 0.00 0.00 52 1008.6
20260504043615 61 0.0 1.0 0.00 0.00 0.00 50 1008.7
20260504042615 62 0.0 0.0 0.00 0.00 0.00 49 1008.9
20260504041636 62 0.0 0.0 0.00 0.00 0.00 48 1008.8
20260504040616 62 0.0 1.0 0.00 0.00 0.00 49 1008.9
20260504035615 62 0.0 0.0 0.00 0.00 0.00 50 1008.9
20260504034615 62 0.0 2.0 0.00 0.00 0.00 50 1008.9
20260504033616 62 0.0 0.0 0.00 0.00 0.00 51 1008.8
20260504032615 62 0.0 0.0 0.00 0.00 0.00 51 1008.9
20260504031615 63 0.0 0.0 0.00 0.00 0.00 50 1009.1
20260504030615 62 0.0 1.0 0.00 0.00 0.00 52 1009.0
20260504025635 62 0.0 0.0 0.00 0.00 0.00 50 1009.0
20260504024615 63 0.0 0.0 0.00 0.00 0.00 49 1009.0
20260504023615 64 0.0 0.0 0.00 0.00 0.00 48 1009.0
20260504022615 65 0.0 1.0 0.00 0.00 0.00 48 1009.0
20260504021617 65 0.0 0.0 0.00 0.00 0.00 45 1008.9
20260504020617 66 0.0 0.0 0.00 0.00 0.00 44 1008.9
20260504015617 68 0.0 0.0 0.00 0.00 0.00 43 1009.2
20260504014617 69 0.0 0.0 0.00 0.00 0.00 41 1009.3
20260504013617 70 0.0 0.0 0.00 0.00 0.00 39 1009.2
20260504012758 71 0.0 0.0 0.00 0.00 0.00 38 1009.4
20260504011617 72 0.0 1.0 0.00 0.00 0.00 36 1009.4
20260504010617 72 0.0 1.0 0.00 0.00 0.00 36 1009.3
20260504005617 73 45 1.0 3.0 0.00 0.00 0.00 35 1009.5
20260504004657 73 113 1.0 3.0 0.00 0.00 0.00 34 1009.6
20260504003637 74 0.0 2.0 0.00 0.00 0.00 35 1009.7
20260504002617 74 0.0 1.0 0.00 0.00 0.00 34 1009.9
20260504001617 75 0.0 0.0 0.00 0.00 0.00 34 1010.1
20260504000637 74 113 1.0 4.0 0.00 0.00 0.00 33 1009.9
20260503235617 75 90 2.0 5.0 0.00 0.00 0.00 34 1010.2
20260503234617 75 0.0 1.0 0.00 0.00 0.00 33 1010.3
20260503233637 75 338 1.0 3.0 0.00 0.00 0.00 34 1010.4
20260503232617 76 113 2.0 5.0 0.00 0.00 0.00 33 1010.5
20260503231617 76 338 1.0 3.0 0.00 0.00 0.00 33 1010.5
20260503230617 75 338 1.0 3.0 0.00 0.00 0.00 34 1010.6
20260503225617 75 68 3.0 4.0 0.00 0.00 0.00 33 1010.7
20260503224637 75 0.0 1.0 0.00 0.00 0.00 34 1010.7
20260503223617 76 338 2.0 5.0 0.00 0.00 0.00 33 1010.9
20260503222617 75 315 2.0 5.0 0.00 0.00 0.00 34 1011.0
20260503221616 76 338 1.0 2.0 0.00 0.00 0.00 34 1011.1
20260503220617 76 113 1.0 3.0 0.00 0.00 0.00 35 1011.2
20260503215637 75 293 1.0 2.0 0.00 0.00 0.00 34 1011.3
20260503214617 75 45 2.0 4.0 0.00 0.00 0.00 34 1011.4
20260503213616 75 0.0 1.0 0.00 0.00 0.00 34 1011.5
20260503212616 76 135 1.0 3.0 0.00 0.00 0.00 33 1011.7
20260503211616 75 0.0 2.0 0.00 0.00 0.00 34 1011.9
20260503210617 76 315 2.0 4.0 0.00 0.00 0.00 33 1012.2
20260503205616 75 158 5.0 6.0 0.00 0.00 0.00 33 1012.3
20260503204617 75 315 2.0 3.0 0.00 0.00 0.00 33 1012.4
20260503203616 75 315 4.0 6.0 0.00 0.00 0.00 34 1012.6
20260503202616 75 338 1.0 3.0 0.00 0.00 0.00 34 1012.7
20260503201617 75 135 2.0 2.0 0.00 0.00 0.00 32 1012.8
20260503200616 75 315 1.0 2.0 0.00 0.00 0.00 35 1013.0
20260503195617 75 0 3.0 7.0 0.00 0.00 0.00 33 1013.1
20260503194617 76 338 3.0 5.0 0.00 0.00 0.00 35 1013.1
20260503193636 76 338 4.0 8.0 0.00 0.00 0.00 33 1013.2
20260503192616 74 90 6.0 11.0 0.00 0.00 0.00 35 1013.1
20260503191637 75 45 3.0 5.0 0.00 0.00 0.00 34 1013.5
20260503190616 75 0.0 1.0 0.00 0.00 0.00 34 1013.6
20260503185616 75 45 3.0 5.0 0.00 0.00 0.00 34 1013.7
20260503184616 74 113 2.0 5.0 0.00 0.00 0.00 34 1013.7
20260503183616 74 315 2.0 4.0 0.00 0.00 0.00 34 1013.8
20260503182616 75 315 2.0 6.0 0.00 0.00 0.00 34 1013.9
20260503181617 74 45 1.0 5.0 0.00 0.00 0.00 36 1013.8
20260503180616 74 135 4.0 13.0 0.00 0.00 0.00 36 1014.1
20260503175616 73 315 2.0 4.0 0.00 0.00 0.00 37 1014.2
20260503174616 73 315 3.0 6.0 0.00 0.00 0.00 35 1014.4
20260503173656 73 0 4.0 6.0 0.00 0.00 0.00 35 1014.6
20260503172636 73 90 1.0 3.0 0.00 0.00 0.00 36 1014.9
20260503171616 73 315 3.0 8.0 0.00 0.00 0.00 36 1014.8
20260503170616 72 338 5.0 9.0 0.00 0.00 0.00 35 1015.1
20260503150616 63 315 4.0 6.0 0.00 0.00 0.00 49 1015.7